User: anonymous   Login
Location: South Tamworth Observatory
(43.8246°N, 71.3026°W)
Time: 07:37:33
(UTC-04:00)
Language:

Cosmos 2208 Rocket - Orbit

View from above orbital plane
View from above orbital plane
View from above satellite
View from above satellite

Ground track
Ground track

The orbit data is extracted from the following two-line orbital elements,

1 22081U 92053B   16208.54523740  .00000020  00000-0  16449-4 0  9999
2 22081  74.0459 312.4425 0036122 359.8138   0.2993 14.33332250252183
Epoch (UTC): 26 July 2016 13:05:08
Eccentricity: 0.0036122
inclination: 74.0459°
perigee height: 755 km
apogee height: 806 km
right ascension of ascending node: 312.4425°
argument of perigee: 359.8138°
revolutions per day: 14.33332250
mean anomaly at epoch: 0.2993°
orbit number at epoch: 25218

The dashed part of the orbit path shows where the satellite is in the earth's shadow,  

DLR